Weather History for Molokai, HI

Change the Weather History Date:

Friday, August 16, 2013

  Actual Average Record
Temperature  
Mean Temperature 77 °F -  
Max Temperature 82 °F 85 °F 92 °F (1978)
Min Temperature 72 °F 70 °F 65 °F (1977)
Cooling Degree Days 12    
Growing Degree Days 27 (Base 50)    
Moisture  
Dew Point 70 °F    
Average Humidity 81    
Maximum Humidity 91    
Minimum Humidity 67    
Precipitation  
Precipitation 0.00 in - - ()
Sea Level Pressure  
Sea Level Pressure 30.03 in    
Wind  
Wind Speed 14 mph (NE)    
Max Wind Speed 24 mph    
Max Gust Speed 38 mph    
Visibility 10 miles    
Events      
Averages and records for this station are not official NWS values.
T = Trace of Precipitation, MM = Missing Value Source: NWS Daily Summary

Daily Weather History Graph

Daily Weather History Graph

Search for Another Location

Airport:

Trip Planner

Search our weather history database for the weather conditions in past years. The results will help you decide how hot, cold, wet, or windy it might be!

Date:

Astronomy

Aug. 16, 2013 Rise Set
Actual Time 6:07 AM HST 6:57 PM HST
Civil Twilight 5:44 AM HST 7:20 PM HST
Nautical Twilight 5:17 AM HST 7:47 PM HST
Astronomical Twilight 4:49 AM HST 8:14 PM HST
Moon 3:13 PM HST (8/16) 1:35 AM HST (8/16)
Length of Visible Light 13h 35m
Length of Day
12h 49m
Waxing Gibbous, 77% of the Moon is Illuminated
Aug 16
Waxing Gibbous
Aug 20
Full
Aug 27
Last Quarter
Sep 5
New
Sep 12
First Quarter

Hourly Weather History & Observations

Time (HST) Temp. Heat Index Dew Point Humidity Pressure Visibility Wind Dir Wind Speed Gust Speed Precip Events Conditions
12:54 AM 73.0 °F - 69.1 °F 87% 30.03 in 10.0 mi NE 10.4 mph 18.4 mph N/A   Clear
1:54 AM 73.0 °F - 69.1 °F 87% 30.01 in 10.0 mi NE 11.5 mph 24.2 mph 0.00 in   Overcast
2:54 AM 73.0 °F - 69.1 °F 87% 30.01 in 10.0 mi NNE 12.7 mph 21.9 mph N/A   Scattered Clouds
3:54 AM 73.0 °F - 69.1 °F 87% 30.00 in 10.0 mi NE 9.2 mph - N/A   Scattered Clouds
4:54 AM 73.0 °F - 69.1 °F 87% 30.01 in 10.0 mi NE 6.9 mph - N/A   Mostly Cloudy
5:54 AM 72.0 °F - 69.1 °F 91% 30.02 in 10.0 mi NE 6.9 mph - 0.00 in   Mostly Cloudy
6:54 AM 73.0 °F - 69.1 °F 87% 30.04 in 10.0 mi NE 8.1 mph - N/A   Scattered Clouds
7:54 AM 75.9 °F - 71.1 °F 85% 30.05 in 10.0 mi NNE 11.5 mph 20.7 mph N/A   Clear
8:54 AM 78.1 °F - 71.1 °F 79% 30.04 in 10.0 mi NE 20.7 mph 29.9 mph N/A   Clear
9:54 AM 79.0 °F - 71.1 °F 77% 30.05 in 10.0 mi NE 23.0 mph 33.4 mph N/A   Clear
10:54 AM 81.0 °F 85.2 °F 72.0 °F 74% 30.04 in 10.0 mi NE 19.6 mph 38.0 mph N/A   Partly Cloudy
11:54 AM 81.0 °F 85.2 °F 72.0 °F 74% 30.03 in 10.0 mi NE 24.2 mph 36.8 mph N/A   Partly Cloudy
12:54 PM 82.0 °F 85.9 °F 70.0 °F 67% 30.01 in 10.0 mi NE 19.6 mph 38.0 mph N/A   Clear
1:54 PM 82.0 °F 86.3 °F 71.1 °F 69% 30.01 in 10.0 mi NE 24.2 mph 36.8 mph N/A   Clear
2:54 PM 82.0 °F 86.3 °F 71.1 °F 69% 29.99 in 10.0 mi NE 23.0 mph 35.7 mph N/A   Clear
3:54 PM 80.1 °F 83.2 °F 70.0 °F 71% 29.99 in 10.0 mi NE 21.9 mph 33.4 mph N/A   Partly Cloudy
4:54 PM 79.0 °F - 70.0 °F 74% 30.00 in 10.0 mi NE 21.9 mph 33.4 mph N/A   Clear
5:54 PM 77.0 °F - 70.0 °F 79% 30.01 in 10.0 mi NE 13.8 mph 27.6 mph 0.00 in   Clear
6:54 PM 75.0 °F - 70.0 °F 84% 30.03 in 10.0 mi NE 16.1 mph 27.6 mph N/A   Clear
7:54 PM 73.9 °F - 69.1 °F 85% 30.05 in 10.0 mi NE 16.1 mph 23.0 mph N/A   Clear
8:54 PM 73.9 °F - 70.0 °F 87% 30.06 in 10.0 mi NE 15.0 mph 25.3 mph N/A   Clear
9:54 PM 73.9 °F - 70.0 °F 87% 30.08 in 10.0 mi NE 10.4 mph 20.7 mph N/A   Clear
10:54 PM 73.9 °F - 69.1 °F 85% 30.07 in 10.0 mi NE 12.7 mph 21.9 mph N/A   Clear
11:54 PM 73.0 °F - 69.1 °F 87% 30.06 in 10.0 mi NNE 10.4 mph 20.7 mph N/A   Clear